Wrangell, AK

5:31 PM AKDT on October 20, 2017 (GMT -0800)
Wrangell

Weather History for PAWG - April, 2014

Change the Weather History Date:

Monday, April 7, 2014

  Actual Average Record
Temperature  
Mean Temperature 44 °F -  
Max Temperature 48 °F 48 °F 56 °F (1985)
Min Temperature 39 °F 34 °F 27 °F (1954)
Degree Days  
Heating Degree Days 22    
Moisture  
Dew Point 38 °F    
Average Humidity 79    
Maximum Humidity 93    
Minimum Humidity 70    
Precipitation  
Precipitation 2.16 in - - ()
Sea Level Pressure  
Sea Level Pressure 29.52 in    
Wind  
Wind Speed 13 mph (SE)    
Max Wind Speed 24 mph    
Max Gust Speed 32 mph    
Visibility 7 miles    
Events      
Averages and records for this station are not official NWS values.
T = Trace of Precipitation, MM = Missing Value Source: NWS Daily Summary

Daily Weather History Graph

Daily Weather History Graph

Search for Another Location

Airport or City:

Trip Planner

Search our weather history database for the weather conditions in past years. The results will help you decide how hot, cold, wet, or windy it might be!

Date:

Astronomy

Apr. 07, 2014 Rise Set
Actual Time 6:03 AM AKDT 7:41 PM AKDT
Civil Twilight 5:23 AM AKDT 8:20 PM AKDT
Nautical Twilight 4:34 AM AKDT 9:10 PM AKDT
Astronomical Twilight 3:38 AM AKDT 10:07 PM AKDT
Moon 11:36 AM AKDT (4/7) 2:53 AM AKDT (4/7)
Length of Visible Light 14h 57m
Length of Day
13h 38m
First Quarter, 55% of the Moon is Illuminated
Apr 7
First Quarter
Apr 14
Full
Apr 21
Last Quarter
Apr 28
New
May 6
First Quarter

Hourly Weather History & Observations

Time (AKDT) Temp. Windchill Dew Point Humidity Pressure Visibility Wind Dir Wind Speed Gust Speed Precip Events Conditions
12:16 AM 42.8 °F 35.4 °F 33.8 °F 70% 29.65 in 8.0 mi SE 15.0 mph 24.2 mph 0.04 in   Overcast
12:36 AM 42.8 °F 35.4 °F 33.8 °F 70% 29.63 in 9.0 mi SE 15.0 mph 24.2 mph 0.05 in   Overcast
12:56 AM 42.8 °F 35.1 °F 33.8 °F 70% 29.62 in 10.0 mi SSE 16.1 mph 21.9 mph 0.06 in   Overcast
1:16 AM 42.8 °F 37.0 °F 33.8 °F 70% 29.63 in 10.0 mi SSW 10.4 mph - 0.02 in   Overcast
1:36 AM 42.8 °F 35.1 °F 33.8 °F 70% 29.61 in 10.0 mi SSE 16.1 mph 19.6 mph 0.03 in   Overcast
1:56 AM 42.8 °F 35.1 °F 33.8 °F 70% 29.60 in 10.0 mi SE 16.1 mph 19.6 mph 0.04 in   Overcast
2:16 AM 42.8 °F 34.8 °F 33.8 °F 70% 29.59 in 10.0 mi SE 17.3 mph - 0.02 in   Overcast
2:36 AM 42.8 °F 34.8 °F 33.8 °F 70% 29.58 in 10.0 mi SE 17.3 mph 24.2 mph 0.05 in   Overcast
2:56 AM 42.8 °F 33.8 °F 33.8 °F 70% 29.57 in 10.0 mi SE 21.9 mph 26.5 mph 0.07 in   Overcast
3:16 AM 42.8 °F 34.8 °F 35.6 °F 76% 29.57 in 8.0 mi SE 17.3 mph 24.2 mph 0.03 in   Overcast
3:36 AM 42.8 °F 34.5 °F 35.6 °F 76% 29.55 in 7.0 mi SE 18.4 mph 21.9 mph 0.07 in   Overcast
3:56 AM 42.8 °F 34.0 °F 35.6 °F 76% 29.54 in 7.0 mi SE 20.7 mph 29.9 mph 0.12 in   Overcast
4:16 AM 42.8 °F 35.1 °F 35.6 °F 76% 29.55 in 9.0 mi SE 16.1 mph 24.2 mph 0.05 in   Overcast
4:36 AM 42.8 °F 37.0 °F 35.6 °F 76% 29.55 in 9.0 mi SE 10.4 mph 23.0 mph 0.10 in   Overcast
4:56 AM 44.6 °F 36.9 °F 35.6 °F 71% 29.53 in 10.0 mi ESE 18.4 mph 25.3 mph 0.15 in   Overcast
5:16 AM 44.6 °F 36.9 °F 37.4 °F 76% 29.52 in 9.0 mi ESE 18.4 mph 23.0 mph 0.09 in   Overcast
5:36 AM 44.6 °F 38.1 °F 37.4 °F 76% 29.52 in 10.0 mi SE 13.8 mph 21.9 mph 0.18 in   Overcast
5:56 AM 44.6 °F 38.1 °F 37.4 °F 76% 29.51 in 7.0 mi SE 13.8 mph 20.7 mph 0.25 in   Overcast
6:16 AM 44.6 °F 38.8 °F 37.4 °F 76% 29.50 in 7.0 mi SE 11.5 mph 18.4 mph 0.02 in   Overcast
6:36 AM 44.6 °F 37.2 °F 37.4 °F 76% 29.49 in 7.0 mi SE 17.3 mph 25.3 mph 0.04 in   Overcast
6:56 AM 44.6 °F 38.4 °F 37.4 °F 76% 29.49 in 7.0 mi SE 12.7 mph 20.7 mph 0.06 in   Overcast
7:16 AM 44.6 °F 36.9 °F 37.4 °F 76% 29.48 in 7.0 mi SE 18.4 mph 26.5 mph 0.02 in   Overcast
7:36 AM 44.6 °F 36.9 °F 37.4 °F 76% 29.48 in 7.0 mi SE 18.4 mph 32.2 mph 0.03 in   Overcast
7:56 AM 44.6 °F 36.4 °F 37.4 °F 76% 29.46 in 7.0 mi SE 20.7 mph 26.5 mph 0.04 in   Overcast
8:16 AM 44.6 °F 36.6 °F 37.4 °F 76% 29.45 in 7.0 mi SE 19.6 mph 28.8 mph 0.01 in   Overcast
8:36 AM 44.6 °F 36.1 °F 37.4 °F 76% 29.44 in 7.0 mi SE 21.9 mph 28.8 mph 0.02 in   Overcast
8:56 AM 44.6 °F 35.9 °F 37.4 °F 76% 29.43 in 7.0 mi SE 23.0 mph 29.9 mph 0.04 in   Overcast
9:16 AM 44.6 °F 36.1 °F 37.4 °F 76% 29.44 in 7.0 mi SE 21.9 mph 28.8 mph 0.01 in   Overcast
9:36 AM 44.6 °F 35.9 °F 37.4 °F 76% 29.43 in 7.0 mi SE 23.0 mph 32.2 mph 0.03 in   Overcast
9:56 AM 44.6 °F 35.7 °F 39.2 °F 81% 29.42 in 7.0 mi ESE 24.2 mph 32.2 mph 0.07 in   Overcast
10:16 AM 44.6 °F 36.4 °F 39.2 °F 81% 29.43 in 7.0 mi ESE 20.7 mph 28.8 mph 0.05 in   Overcast
10:36 AM 46.4 °F 38.3 °F 39.2 °F 76% 29.44 in 7.0 mi ESE 23.0 mph 31.1 mph 0.09 in   Overcast
10:56 AM 46.4 °F 39.0 °F 39.2 °F 76% 29.45 in 7.0 mi ESE 19.6 mph 29.9 mph 0.12 in   Overcast
11:16 AM 46.4 °F 39.2 °F 39.2 °F 76% 29.45 in 7.0 mi ESE 18.4 mph 26.5 mph 0.02 in   Overcast
11:36 AM 46.4 °F 39.0 °F 39.2 °F 76% 29.45 in 7.0 mi ESE 19.6 mph 27.6 mph 0.03 in   Overcast
11:56 AM 46.4 °F 39.5 °F 39.2 °F 76% 29.45 in 7.0 mi ESE 17.3 mph 26.5 mph 0.05 in   Overcast
12:16 PM 46.4 °F 40.4 °F 39.2 °F 76% 29.47 in 7.0 mi SE 13.8 mph 25.3 mph 0.01 in   Overcast
12:36 PM 46.4 °F 41.5 °F 41.0 °F 81% 29.48 in 7.0 mi SSE 10.4 mph 20.7 mph 0.02 in   Overcast
12:56 PM 48.2 °F - 42.8 °F 82% 29.49 in 7.0 mi South 8.1 mph - 0.04 in   Overcast
1:16 PM 48.2 °F - 42.8 °F 82% 29.50 in 7.0 mi SSE 8.1 mph - 0.02 in   Overcast
1:36 PM 48.2 °F - 42.8 °F 82% 29.50 in 7.0 mi SSE 9.2 mph - 0.04 in   Overcast
1:56 PM 48.2 °F - 41.0 °F 76% 29.51 in 7.0 mi South 9.2 mph - 0.07 in   Overcast
2:16 PM 48.2 °F - 42.8 °F 82% 29.52 in 7.0 mi South 5.8 mph - 0.03 in   Overcast
2:36 PM 48.2 °F - 42.8 °F 82% 29.53 in 7.0 mi Calm Calm - 0.07 in   Overcast
2:56 PM 48.2 °F - 42.8 °F 82% 29.53 in 7.0 mi Calm Calm - 0.11 in   Overcast
3:16 PM 46.4 °F - 42.8 °F 87% 29.54 in 7.0 mi Calm Calm - 0.04 in   Overcast
3:36 PM 46.4 °F 45.2 °F 42.8 °F 87% 29.54 in 7.0 mi North 3.5 mph - 0.09 in   Overcast
3:56 PM 46.4 °F 44.3 °F 42.8 °F 87% 29.54 in 7.0 mi West 4.6 mph - 0.14 in   Overcast
4:16 PM 46.4 °F 43.5 °F 39.2 °F 76% 29.55 in 7.0 mi West 5.8 mph - 0.03 in   Overcast
4:36 PM 44.6 °F 41.4 °F 39.2 °F 81% 29.55 in 7.0 mi West 5.8 mph - 0.05 in   Overcast
4:56 PM 44.6 °F 41.4 °F 39.2 °F 81% 29.55 in 7.0 mi West 5.8 mph - 0.10 in   Overcast
5:16 PM 44.6 °F 41.4 °F 39.2 °F 81% 29.55 in 7.0 mi West 5.8 mph - 0.04 in   Overcast
5:36 PM 44.6 °F 43.1 °F 39.2 °F 81% 29.55 in 7.0 mi SE 3.5 mph - 0.09 in   Overcast
5:56 PM 44.6 °F - 39.2 °F 81% 29.54 in 7.0 mi Calm Calm - 0.11 in   Overcast
6:16 PM 42.8 °F - 39.2 °F 87% 29.54 in 7.0 mi Calm Calm - 0.02 in   Overcast
6:36 PM 42.8 °F 41.1 °F 39.2 °F 87% 29.53 in 7.0 mi ESE 3.5 mph - 0.05 in   Overcast
6:56 PM 42.8 °F 41.1 °F 39.2 °F 87% 29.53 in 7.0 mi NNW 3.5 mph - 0.08 in   Overcast
7:16 PM 42.8 °F 41.1 °F 39.2 °F 87% 29.53 in 7.0 mi WNW 3.5 mph - 0.04 in   Overcast
7:36 PM 42.8 °F 39.3 °F 37.4 °F 81% 29.52 in 7.0 mi NW 5.8 mph - 0.07 in   Overcast
7:56 PM 42.8 °F 38.0 °F 37.4 °F 81% 29.52 in 7.0 mi NW 8.1 mph - 0.09 in   Overcast
8:16 PM 41.0 °F 37.1 °F 35.6 °F 81% 29.52 in 7.0 mi NW 5.8 mph - 0.02 in   Overcast
8:36 PM 41.0 °F - 35.6 °F 81% 29.52 in 7.0 mi Calm Calm - 0.06 in   Overcast
8:56 PM 41.0 °F 38.0 °F 35.6 °F 81% 29.52 in 7.0 mi WNW 4.6 mph - 0.09 in   Overcast
9:16 PM 41.0 °F 37.1 °F 35.6 °F 81% 29.52 in 7.0 mi WNW 5.8 mph - 0.05 in   Overcast
9:36 PM 41.0 °F 38.0 °F 37.4 °F 87% 29.52 in 7.0 mi WNW 4.6 mph - 0.10 in   Unknown
9:56 PM 41.0 °F 39.0 °F 37.4 °F 87% 29.52 in 7.0 mi NW 3.5 mph - 0.14 in   Overcast
10:16 PM 41.0 °F 38.0 °F 35.6 °F 81% 29.52 in 7.0 mi NNW 4.6 mph - 0.04 in   Overcast
10:36 PM 41.0 °F - 37.4 °F 87% 29.53 in 7.0 mi Calm Calm - 0.06 in   Overcast
10:56 PM 41.0 °F - 37.4 °F 87% 29.53 in 7.0 mi Calm Calm - 0.08 in   Overcast
11:16 PM 41.0 °F 39.0 °F 37.4 °F 87% 29.53 in 2.5 mi ESE 3.5 mph - 0.01 in   Overcast
11:36 PM 39.2 °F 35.0 °F 37.4 °F 93% 29.53 in 8.0 mi SE 5.8 mph - 0.02 in   Overcast
11:56 PM 41.0 °F 38.0 °F 37.4 °F 87% 29.54 in 2.5 mi SSE 4.6 mph - 0.04 in   Overcast